Regional Weather Roundup
Issued by NWS

Home | Current Version | Previous Version | Text Only | Print | Product List | Glossary Off
Versions: 1 2 3 4 5 6 7 8 9 10 11 12 13 14 15 16 17 18 19 20 21 22 23 24 25 26 27

000
ASUS45 KBOU 232107
RWRCO

WEATHER ROUNDUP FOR COLORADO
NATIONAL WEATHER SERVICE DENVER/BOULDER CO
200 PM MST THU FEB 23 2017

NOTE: "FAIR" INDICATES FEW OR NO CLOUDS BELOW 12000 FEET WITH NO
SIGNIFICANT WEATHER AND/OR OBSTRUCTIONS TO VISIBILITY.

COZ001>005-013-030-031-232200-
...NORTHWEST COLORADO...

CITY           SKY/WX    TMP DP  RH WIND       PRES   REMARKS
CRAIG          PTSUNNY   28  13  53 W15       29.62S WCI  16
HAYDEN         PTSUNNY   27  10  50 NW13G22   29.61R WCI  16
MEEKER         PTSUNNY   26  19  74 S10       29.63S WCI  16
MOUNT WERNER   NOT AVBL
STEAMBOAT SPGS PTSUNNY   24  14  65 NW8       29.60F WCI  15
WALDEN         NOT AVBL
$$

COZ006>008-011-232200-
...WEST CENTRAL VALLEYS...

CITY           SKY/WX    TMP DP  RH WIND       PRES   REMARKS
GRAND JUNCTION FAIR      41   8  25 W23G30    29.68S
MONTROSE       PTSUNNY   35  14  42 S18       29.70R WCI  24
EAGLE          PTSUNNY   30  14  51 W12       29.64R WCI  21
RIFLE          FAIR      38   9  30 W17G29    29.64S
DELTA          FAIR      44  -1  15 W23G30    29.68S
NUCLA          FAIR      39   0  19 SW16G22   29.72F
$$

COZ017>023-064>068-232200-
...SOUTHWEST COLORADO...

CITY           SKY/WX    TMP DP  RH WIND       PRES   REMARKS
DURANGO        PTSUNNY   33   2  26 W23G31    29.69S WCI  21
CORTEZ         PTSUNNY   38  -2  18 W18G36    29.72S
PAGOSA SPRINGS CLOUDY    30   6  37 W14G28    29.67R WCI  19
TELLURIDE      CLOUDY    19  10  66 W10G20    29.66R HAZE    WCI   7
WOLF CREEK PAS CLOUDY     5   5 100 S24G43    29.55R FOG     WCI -17
$$

COZ009-010-012-014-032>034-037-058>063-232200-
...CENTRAL COLORADO...

CITY           SKY/WX    TMP DP  RH WIND       PRES   REMARKS
ASPEN          FLURRIES  21  14  74 VRB6      29.60R WCI  13
BUENA VISTA    FAIR      28   5  36 SW29G39   29.55R WCI  13
COPPER MTN     CLOUDY    14   3  62 MISG      29.46R
BERTHOUD PASS  HAZE       3  -6  66 NW31G40   29.40R VSB 1/2 WCI -22
COTTONWOOD PAS CLOUDY    19   1  45 W16G29    29.54R WCI   5
GUNNISON       FAIR      25   5  42 W15G24    29.62S WCI  13
KREMMLING      LGT SNOW  28  21  74 N10       29.59R VSB 3/4 WCI  19
LEADVILLE      LGT SNOW  14   3  61 W10G28    29.52R WCI   1
MONARCH PASS   FAIR       5   1  85 W43G55    29.58R WCI -22
SALIDA         FAIR      34  -4  19 W30G38    29.64R WCI  20
SUNLIGHT       NOT AVBL
WILKERSON PASS FAIR      23  -6  28 SW17G29   29.48R WCI   9
$$

COZ069>075-232200-
...SAN LUIS VALLEY/SANGRE DE CRISTO MOUNTAINS...

CITY           SKY/WX    TMP DP  RH WIND       PRES   REMARKS
ALAMOSA        FAIR      35   8  32 W25G33    29.58R WCI  23
LA VETA PASS   FAIR      27   5  39 SW36G58   29.45S WCI   9
SAGUACHE       PTSUNNY   32   5  32 NW22G33   29.57S WCI  19
$$

COZ035-036-038>040-232200-
...NORTHERN COLORADO FRONT RANGE...

CITY           SKY/WX    TMP DP  RH WIND       PRES   REMARKS
DENVER INTL AP LGT SNOW  30  26  85 NE14      29.56R FOG     WCI  19
DMNS CITY PARK   N/A     31  26  83 MISG      29.57R
AURORA         FLURRIES  32  30  94 NE10      29.55R WCI  23
FRONT RANGE AP NOT AVBL
ERIE MUNI ARPT FLURRIES  32  28  88 NE13      29.58R WCI  22
BOULDER MUN AP LGT SNOW  32  30  93 N12       29.58R WCI  23
CENTENNIAL     FLURRIES  32  26  78 N6        29.53S WCI  26
BROOMFIELD     LGT SNOW  30  28  93 N8        29.57R WCI  23
FORT COLLINS   LGT SNOW  27  25  93 N20       29.63R FOG     WCI  13
LONGMONT       LGT SNOW  33  29  85 N12G17    29.62R VSB 3/4 WCI  24
$$

COZ041-046-047-076>085-087-088-232200-
...PIKES PEAK/PALMER DIVIDE AND SOUTHERN FOOTHILLS...

CITY           SKY/WX    TMP DP  RH WIND       PRES   REMARKS
COLO. SPRINGS  PTSUNNY   41  21  44 N9        29.49S
A. F. ACADEMY  PTSUNNY   32  24  72 N14G21    29.48R WCI  22
SCHRIEVER AFB  PTSUNNY   37  22  56 NE10G17   29.49
ELLICOTT       LGT SNOW N/A N/A N/A N8        29.48S
FALCON         PTSUNNY   36  23  59 N15G21    29.50R
FORT CARSON    PTSUNNY   40  23  49 N5        29.48S
LIMON          LGT SNOW  30  30 100 E9        29.51R VSB 3/4 WCI  22
MONUMENT HILL  CLOUDY    27  23  86 N12       29.51S WCI  16
TRINIDAD       FAIR      52   2  13 W35G46    29.47R
$$

COZ042>045-048>051-090-091-232200-
...NORTHEAST COLORADO...

CITY           SKY/WX    TMP DP  RH WIND       PRES   REMARKS
GREELEY ARPT   FLURRIES  28  24  85 NE20G26   29.64R WCI  15
AKRON          LGT SNOW  27  24  89 NE14      29.58R FOG     WCI  16
BURLINGTON     CLOUDY    32  31  96 NE17      29.51R FOG     WCI  21
WRAY           NOT AVBL
STERLING       LGT SNOW  28  27  93 N10G16    29.62R WCI  19
HOLYOKE        LGT SNOW  30  28  93 NE9       29.61R VSB 3/4 WCI  22
FORT MORGAN    LGT SNOW  28  26  89 N18       29.61R WCI  16
$$

COZ086-089-092>099-232200-
...SOUTHEAST COLORADO...

CITY           SKY/WX    TMP DP  RH WIND       PRES   REMARKS
PUEBLO         FAIR      52  11  19 W28G33    29.46R
LA JUNTA       FAIR      53  24  32 NW9G24    29.47R
LAMAR          FAIR      55  33  43 N24G30    29.42R
SPRINGFIELD      N/A     64  17  16 W23G37    29.39R
$$




USA.gov is the U.S. government's official web portal to all federal, state and local government web resources and services.